Location: Newark
(54.3386°S, 169.8415°W)
Time: 19:32:43
(UTC+00:00)

Transit 2A Rocket - Pass Details

Date: 25 October 2019
Orbit: 594 x 909 km, 66.7° (Epoch: 13 November)

Event Time Altitude Azimuth Distance (km) Brightness Sun altitude
Rises 02:29:12 0° 358° (N) 3,215 8.6 31.6°
Reaches altitude 10° 02:31:45 10° 9° (N) 2,349 7.8 31.3°
Maximum altitude 02:36:24 30° 68° (ENE) 1,473 6.4 30.7°
Drops below altitude 10° 02:41:24 10° 126° (SE) 2,538 7.3 30.0°
Sets 02:44:15 0° 136° (SE) 3,518 7.9 29.6°
